Overview Statistics Trail Chart Weather Telemetry Raw packets
 

This is the latest recevied weather packets stored in our database for station/object EA1GHG-11. If no packets are shown the sender has not sent any weather packets the latest 10 day(s).

<< 1 2 3 4 5 >>
Time Temp. Humidity Pressure Rain* Wind** Luminosity Snow
1788579372 21.67° C 100% 1024.3 hPa - - - -
1788577872 21.11° C 100% 1024.2 hPa - - - -
1788576372 20.56° C 100% 1024.4 hPa - - - -
1788574871 20.56° C 100% 1024.7 hPa - - - -
1788573371 21.11° C 100% 1024.5 hPa - - - -
1788572772 21.67° C 100% 1024.2 hPa - - - -
1788571272 21.11° C 100% 1024.7 hPa - - - -
1788569772 22.22° C 100% 1024.7 hPa - - - -
1788568272 22.22° C 100% 1025 hPa - - - -
1788566772 22.78° C 100% 1024.8 hPa - - - -
1788565272 22.78° C 100% 1024.5 hPa - - - -
1788563772 22.22° C 100% 1024.9 hPa - - - -
1788562272 22.78° C 100% 1025.3 hPa - - - -
1788560771 23.33° C 100% 1026.1 hPa - - - -
1788559271 24.44° C 100% 1026 hPa - - - -
1788557771 24.44° C 100% 1026 hPa - - - -
1788556271 24.44° C 100% 1026 hPa - - - -
1788554771 23.89° C 100% 1025.7 hPa - - - -
1788553271 24.44° C 100% 1025.3 hPa - - - -
1788551771 25.56° C 100% 1025.2 hPa - - - -
1788551171 26.11° C 100% 1025.2 hPa - - - -
1788549671 26.11° C 100% 1024.8 hPa - - - -
1788548171 26.67° C 100% 1024.9 hPa - - - -
1788546670 28.33° C 100% 1024.8 hPa - - - -
1788545170 30° C 100% 1024.4 hPa - - - -

* Rain since midnight (hover to see other rain measurements)
** Current wind speed in m/s (hover to see current wind gust speed)